"Pseudo-MPEC" for P11ZQp8

Created 2024 Oct 12 10:31:14 UT using Find_Orb

Click here for an explanation of pseudo-MPECs

 
 Astrometry: 
     P11ZQp8* C2024 10 01.53640503 34 47.104-43 22 21.69   ~A1E7 21.91wXNEOCPF51
     P11ZQp8  C2024 10 01.54351903 34 46.669-43 22 18.91   ~A1E7 21.46wXNEOCPF51
     P11ZQp8  C2024 10 01.55062503 34 46.225-43 22 16.20   ~A1E7 21.36wXNEOCPF51
     P11ZQp8 |C2024 10 02.31606003 34 01.670-43 17 00.40   ~A297 21.4 GVNEOCP807
     P11ZQp8 |C2024 10 02.32161003 34 01.300-43 16 58.20   ~A297 21.5 GVNEOCP807
     P11ZQp8 |C2024 10 02.32716003 34 00.940-43 16 55.90   ~A297 21.4 GVNEOCP807
     P11ZQp8 |C2024 10 04.29679003 31 56.340-43 02 07.70   ~A487 21.5 GVNEOCP807
     P11ZQp8 |C2024 10 04.30233003 31 55.940-43 02 05.10   ~A487 21.5 GVNEOCP807
     P11ZQp8 |C2024 10 04.30788003 31 55.530-43 02 02.40   ~A487 21.5 GVNEOCP807

Station data:
(807) Cerro Tololo Observatory, La Serena  (S30.169133 W70.805900)  Chile.
   Observer R. Holmes. 0.61-m f/6.5 astrograph + CCD.
(F51) Pan-STARRS 1, Haleakala  (N20.707234 W156.255910)  US/Hawaii.
   Observers J. Bulger, T. Lowe, A. Schultz, M. Willman. Measurers K.
   Chambers, S. Chastel, T. de Boer, L. Denneau, J. Fairlamb, H. Flewelling,
   M. Huber, C.-C. Lin, E. Magnier, Y. Ramanjooloo, R. Wainscoat, R. Weryk.
   1.8-m Ritchey-Chrétien + CCD.

Orbital elements:  P11ZQp8
   Perihelion 2024 Sep 16.45395 +/- 20.5 TT = 10:53:41 (JD 2460569.95395)
Epoch 2024 Oct  4.0 TT = JDT 2460587.5   Earth MOID: 0.7565      AutoNEOCP
M   3.65113736 +/- 5.1              (J2000 ecliptic)
n   0.20808886 +/- 0.0511           Peri.  289.39439 +/- 17
a   2.82035312 +/- 0.462            Node    72.66095 +/- 5.1
e   0.4504055 +/- 0.057             Incl.   30.95530 +/- 3.6
P   4.73647                H 19.71  G  0.15   U 10.7
q 1.55005030 +/- 0.0929    Q 4.09065594 +/- 0.83
From 9 observations 2024 Oct. 1-4; mean residual 0".05
Residuals in arcseconds: 
241001 F51  .07-  .01-    241002 807  .08+  .12+    241004 807  .02+  .05+    
241001 F51  .03+  .02+    241002 807  .02-  .00     241004 807  .03+  .04-    
241001 F51  .04+  .02-    241002 807  .01-  .02-    241004 807  .06-  .04-    

Ephemerides (geocentric):
Date (UTC) HH   RA             Dec           delta  r     elong  mag " sig PA
---- --------  ------------   ------------  ------ ------ -----  --- --------
2024 10 12 11  03 21 00.487   -41 33 25.05  .78664 1.5686 122.6 21.5 28.9  95
2024 10 12 12  03 20 56.638   -41 32 50.38  .78656 1.5687 122.6 21.5 29.2  95
2024 10 12 13  03 20 52.785   -41 32 15.63  .78647 1.5687 122.6 21.5 29.6  95
2024 10 12 14  03 20 48.927   -41 31 40.80  .78638 1.5688 122.7 21.5 30.0  95
2024 10 12 15  03 20 45.065   -41 31 05.88  .78629 1.5688 122.7 21.5 30.4  95
2024 10 12 16  03 20 41.199   -41 30 30.89  .78621 1.5689 122.7 21.5 30.8  95
2024 10 12 17  03 20 37.328   -41 29 55.81  .78612 1.5690 122.7 21.5 31.2  95
2024 10 12 18  03 20 33.453   -41 29 20.65  .78604 1.5690 122.7 21.5 31.6  95
2024 10 12 19  03 20 29.573   -41 28 45.41  .78595 1.5691 122.8 21.5 32.0  95
2024 10 12 20  03 20 25.689   -41 28 10.09  .78586 1.5691 122.8 21.5 32.4  95
2024 10 12 21  03 20 21.801   -41 27 34.68  .78578 1.5692 122.8 21.5 32.8  96
2024 10 12 22  03 20 17.909   -41 26 59.19  .78569 1.5693 122.8 21.5 33.2  96
2024 10 12 23  03 20 14.012   -41 26 23.62  .78561 1.5693 122.8 21.5 33.7  96
2024 10 13 00  03 20 10.112   -41 25 47.97  .78552 1.5694 122.9 21.5 34.1  96
2024 10 13 01  03 20 06.206   -41 25 12.23  .78544 1.5694 122.9 21.5 34.5  96
2024 10 13 02  03 20 02.297   -41 24 36.42  .78535 1.5695 122.9 21.5 34.9  96
2024 10 13 03  03 19 58.383   -41 24 00.52  .78527 1.5696 122.9 21.5 35.4  96
2024 10 13 04  03 19 54.466   -41 23 24.53  .78518 1.5696 122.9 21.5 35.8  96
2024 10 13 05  03 19 50.543   -41 22 48.47  .78510 1.5697 123.0 21.5 36.3  96
2024 10 13 06  03 19 46.617   -41 22 12.32  .78501 1.5697 123.0 21.5 36.7  96
2024 10 13 07  03 19 42.687   -41 21 36.09  .78493 1.5698 123.0 21.5 37.2  96
2024 10 13 08  03 19 38.752   -41 20 59.77  .78485 1.5699 123.0 21.5 37.6  97
2024 10 13 09  03 19 34.813   -41 20 23.38  .78476 1.5699 123.0 21.5 38.1  97
2024 10 13 10  03 19 30.870   -41 19 46.90  .78468 1.5700 123.1 21.5 38.5  97
2024 10 13 11  03 19 26.923   -41 19 10.33  .78460 1.5700 123.1 21.5 39.0  97
2024 10 13 12  03 19 22.972   -41 18 33.69  .78451 1.5701 123.1 21.5 39.5  97
2024 10 13 13  03 19 19.017   -41 17 56.96  .78443 1.5702 123.1 21.5 40.0  97
2024 10 13 14  03 19 15.058   -41 17 20.14  .78435 1.5702 123.1 21.5 40.4  97
2024 10 13 15  03 19 11.094   -41 16 43.25  .78426 1.5703 123.1 21.5 40.9  97
2024 10 13 16  03 19 07.126   -41 16 06.26  .78418 1.5704 123.2 21.5 41.4  97
2024 10 13 17  03 19 03.155   -41 15 29.20  .78410 1.5704 123.2 21.5 41.9  97
2024 10 13 18  03 18 59.179   -41 14 52.05  .78402 1.5705 123.2 21.5 42.4  97
2024 10 13 19  03 18 55.199   -41 14 14.82  .78393 1.5705 123.2 21.5 42.9  98
2024 10 13 20  03 18 51.216   -41 13 37.51  .78385 1.5706 123.2 21.5 43.4  98
2024 10 13 21  03 18 47.228   -41 13 00.11  .78377 1.5707 123.3 21.5 43.9  98
2024 10 13 22  03 18 43.236   -41 12 22.63  .78369 1.5707 123.3 21.5 44.4  98
2024 10 13 23  03 18 39.240   -41 11 45.06  .78361 1.5708 123.3 21.5 44.9  98
2024 10 14 00  03 18 35.240   -41 11 07.41  .78353 1.5708 123.3 21.5 45.5  98
2024 10 14 01  03 18 31.237   -41 10 29.67  .78345 1.5709 123.3 21.5 46.0  98
2024 10 14 02  03 18 27.229   -41 09 51.86  .78337 1.5710 123.4 21.5 46.5  98
2024 10 14 03  03 18 23.217   -41 09 13.95  .78328 1.5710 123.4 21.5 47.0  98
2024 10 14 04  03 18 19.202   -41 08 35.97  .78320 1.5711 123.4 21.5 47.6  98
2024 10 14 05  03 18 15.182   -41 07 57.90  .78312 1.5712 123.4 21.5 48.1  98
2024 10 14 06  03 18 11.159   -41 07 19.74  .78304 1.5712 123.4 21.5 48.7  99
2024 10 14 07  03 18 07.131   -41 06 41.50  .78296 1.5713 123.5 21.5 49.2  99
2024 10 14 08  03 18 03.100   -41 06 03.17  .78288 1.5713 123.5 21.5 49.8  99
2024 10 14 09  03 17 59.065   -41 05 24.77  .78280 1.5714 123.5 21.5 50.3  99
2024 10 14 10  03 17 55.026   -41 04 46.27  .78272 1.5715 123.5 21.5 50.9  99